User: anonymous   Login
Location: St Paul
(33.9360°N, 83.4200°W)
Time: 07:28:57
(UTC-05:00)
Language:

METEOR-M - Orbit

View from above orbital plane
View from above orbital plane
View from above satellite
View from above satellite

Ground track
Ground track

The orbit data is extracted from the following two-line orbital elements,

1 35865U 09049A   19318.95876400  .00000014  00000-0  25161-4 0  9994
2 35865  98.4219 310.3910 0003474  96.0673 264.0901 14.22214813527293
Epoch (UTC): 14 November 2019 23:00:37
Eccentricity: 0.0003474
inclination: 98.4219°
perigee height: 815 km
apogee height: 820 km
right ascension of ascending node: 310.3910°
argument of perigee: 96.0673°
revolutions per day: 14.22214813
mean anomaly at epoch: 264.0901°
orbit number at epoch: 52729

The dashed part of the orbit path shows where the satellite is in the earth's shadow,  

DLR